Regional Weather Roundup
Issued by NWS

Home | Current Version | Previous Version | Text Only | Print | Product List | Glossary On
Versions: 1 2 3 4 5 6 7 8 9 10 11 12 13 14 15 16 17 18 19 20 21 22 23 24 25 26 27 28 29 30 31 32 33 34 35 36 37 38 39 40 41 42 43 44 45 46 47 48 49 50
000
ASUS43 KLSX 190557
RWRMO

WEATHER SUMMARY FOR MISSOURI
NATIONAL WEATHER SERVICE SPRINGFIELD MO
1200 AM CST MON FEB 19 2018

NOTE: "FAIR" INDICATES FEW OR NO CLOUDS BELOW 12,000 FEET WITH NO
       SIGNIFICANT WEATHER AND/OR OBSTRUCTIONS TO VISIBILITY.
       CURRENT SKY AND/OR WEATHER CONDITIONS ARE NOT AVAILABLE FOR
       CHILLICOTHE AND FARMINGTON.

MOZ001>031-035>038-043-044-053-054-190700-
...NORTHERN AND WESTERN MISSOURI...

CITY           SKY/WX    TMP DP  RH WIND       PRES   REMARKS
KANSAS CTY INT CLOUDY    52  48  86 S18G25    29.68S
6HR MIN TEMP:  52; 6HR MAX TEMP:  56;

LEE`S SUMMIT   CLOUDY    53  50  89 S14G28    29.71S
6HR MIN TEMP:  52; 6HR MAX TEMP:  56;

ST JOSEPH      CLOUDY    52  48  86 S17       29.66F
6HR MIN TEMP:  52; 6HR MAX TEMP:  55;

CHILLICOTHE      N/A     53  37  54 S9        29.73S
6HR MIN TEMP:  51; 6HR MAX TEMP:  53;


$$
MOZ066>068-077>081-088>096-101>105-190700-
...SOUTHWEST MISSOURI...

CITY           SKY/WX    TMP DP  RH WIND       PRES   REMARKS
SPRINGFIELD    CLOUDY    50  48  93 S18       29.83S
6HR MIN TEMP:  49; 6HR MAX TEMP:  51;

JOPLIN         CLOUDY    58  56  93 S26G43    29.78S
6HR MIN TEMP:  54; 6HR MAX TEMP:  58;


$$
MOZ032>034-039>042-045>050-055>058-069>072-190700-
...CENTRAL MISSOURI...

CITY           SKY/WX    TMP DP  RH WIND       PRES   REMARKS
COLUMBIA       NOT AVBL
JEFFERSON CITY CLOUDY    54  47  77 S16G23    29.82F
6HR MIN TEMP:  50; 6HR MAX TEMP:  54;

ROLLA          CLOUDY    50  48  93 S18G33    29.87S
6HR MIN TEMP:  47; 6HR MAX TEMP:  50;

SEDALIA        CLOUDY    55  51  86 S16G26    29.77F
6HR MIN TEMP:  52; 6HR MAX TEMP:  55;

WARRENSBURG    CLOUDY    54  50  87 S13G18    29.73F

$$
MOZ051-052-059>065-190700-
...EAST CENTRAL MISSOURI...

CITY           SKY/WX    TMP DP  RH WIND       PRES   REMARKS
ST LOUIS INTL  CLOUDY    51  43  74 S12G20    29.88S
6HR MIN TEMP:  48; 6HR MAX TEMP:  51;


$$
MOZ072>076-082>087-097>100-106>115-190700-
...SOUTH CENTRAL AND SOUTHEAST MISSOURI...

CITY           SKY/WX    TMP DP  RH WIND       PRES   REMARKS
CAPE GIRARDEAU CLOUDY    51  48  89 S14       30.02R
6HR MIN TEMP:  50; 6HR MAX TEMP:  52;

POPLAR BLUFF   CLOUDY    51  51 100 S10       30.00F
6HR MIN TEMP:  50; 6HR MAX TEMP:  52;

WEST PLAINS    CLOUDY    50  48  93 S13G23    29.96R
6HR MIN TEMP:  47; 6HR MAX TEMP:  50;


$$



USA.gov is the U.S. government's official web portal to all federal, state and local government web resources and services.